Location: Hermaringen
(48.5952°N, 10.2585°E)
Time: 21:13:38
(UTC+00:00)

COSMOS 2406 - Pass Details

Date: 18 November 2025
Orbit: 845 x 858 km, 71.0° (Epoch: 04 December)

Event Time Altitude Azimuth Distance (km) Brightness Sun altitude
Rises 16:22:40 0° 335° (NNW) 3,418 6.4 -7.8°
Reaches altitude 10° 16:25:29 10° 348° (NNW) 2,480 5.6 -8.3°
Maximum altitude 16:30:20 28° 46° (NE) 1,546 4.1 -9.0°
Drops below altitude 10° 16:35:11 10° 105° (ESE) 2,474 5.1 -9.8°
Enters shadow 16:36:52 - 113° (ESE) 3,025 5.6 -10.1°
